User: anonymous   Login
Location: Deer Path Park
(40.5570°N, 74.8450°W)
Time: 15:48:14
(UTC-04:00)
Language:

Iridium 49 - Orbit

View from above orbital plane
View from above orbital plane
View from above satellite
View from above satellite

Ground track
Ground track

The orbit data is extracted from the following two-line orbital elements,

1 25108U 97082E   15243.37561957  .00000235  00000-0  76938-4 0  9997
2 25108 086.4020 169.5677 0002441 078.2142 061.2891 14.34214007926374
Epoch (UTC): 31 August 2015 09:00:53
Eccentricity: 0.0002441
inclination: 86.4020°
perigee height: 776 km
apogee height: 779 km
right ascension of ascending node: 169.5677°
argument of perigee: 78.2142°
revolutions per day: 14.34214007
mean anomaly at epoch: 61.2891°
orbit number at epoch: 92637

The dashed part of the orbit path shows where the satellite is in the earth's shadow,  

DLR